TABLETSAT-AURORA

Last updated on Dec. 13, 2018, 12:09 a.m. UTC

1 40017U 14033H   18346.79976076  .00000420  00000-0  45804-4 0  9997
2 40017  97.9686 278.1354 0023124 333.2545  26.7464 14.93221088244092
UTC
Height (km)
Latitude
Longitude
Inclination
Orbital Period
UTC large
Height (km)
Speed (km/s)
/
Latitude / Longitude
Inclination (degrees)
Orbital Period (minutes)
Azimuth
Elevation
Range (km)
Doppler Factor
iOS Compass Heading
iOS Angle